Wind_Speed
6 6 7 7 8 8 8 8 8 8 9 9 9 9 9 9 9 9 9 10 10 11 11 12 12 12 13 13 13 13 12 12 11 11 10 9 9 8 7 6 5 4 3
7 7 8 8 8 8 8 8 9 9 9 9 9 9 9 9 9 9 9 9 10 11 11 12 12 12 13 13 13 13 13 13 12 12 11 10 10 9 9 8 6 6 5
7 8 8 9 8 8 8 9 9 9 9 9 9 9 10 10 10 10 10 10 10 11 11 12 12 12 13 13 14 14 14 14 14 13 12 11 11 11 10 9 8 7 6
7 8 8 8 8 9 9 9 9 9 10 10 10 10 10 10 11 11 11 11 11 11 12 12 12 12 13 13 14 14 15 15 15 14 13 13 12 11 11 10 9 8 7
8 8 8 9 9 9 9 10 9 10 10 10 10 10 11 11 11 11 11 11 12 12 12 13 13 13 13 14 15 15 15 16 16 15 15 14 13 12 11 11 10 10 8
8 9 9 9 9 10 10 10 10 11 11 11 11 11 11 11 11 11 11 12 13 13 13 13 13 14 14 15 15 15 16 17 16 17 17 15 14 13 12 11 11 11 9
9 9 9 9 9 9 10 10 11 11 11 11 11 11 11 12 12 12 12 12 13 13 13 13 13 14 14 15 15 15 16 17 17 17 17 17 15 14 13 13 12 11 11
9 9 9 9 9 10 10 10 11 11 11 11 11 12 12 12 12 12 13 14 14 14 14 14 14 14 14 15 15 16 17 17 18 18 18 18 17 16 15 14 13 12 12
10 9 9 9 10 10 10 10 11 11 11 12 12 12 12 12 12 13 14 15 15 15 14 14 14 14 14 15 15 15 16 17 18 19 19 18 18 17 17 16 15 14 13
10 10 9 9 10 11 11 11 11 12 12 12 12 13 13 13 14 14 15 16 16 16 15 15 15 15 15 15 15 16 16 17 18 19 19 19 19 19 18 17 16 15 14
10 10 10 9 10 10 11 11 12 13 13 12 13 14 14 14 15 16 17 17 17 16 16 16 16 16 16 16 16 16 16 17 18 19 19 20 21 20 20 19 18 17 16
10 10 10 10 11 11 11 12 12 13 13 13 13 14 15 15 16 17 17 17 17 17 17 16 17 17 17 17 16 16 16 16 17 19 19 20 21 21 21 20 19 18 17
10 10 10 10 11 11 12 13 13 14 13 14 14 14 15 16 17 17 18 18 18 18 18 18 18 17 17 18 18 17 17 17 17 18 19 20 21 22 21 21 20 19 18
9 9 9 10 10 11 12 13 14 14 14 14 15 15 16 17 18 18 18 18 18 19 18 18 18 18 18 18 18 18 17 17 18 18 19 20 21 22 22 22 22 21 19
9 9 10 10 11 12 13 13 14 14 14 14 15 16 17 18 18 19 19 19 19 19 19 18 18 18 18 17 17 17 16 17 18 18 19 20 21 22 23 23 23 22 21
8 9 10 10 11 12 13 14 14 14 14 15 16 16 17 18 19 19 19 20 20 19 19 19 19 18 17 17 16 16 16 16 17 18 18 20 21 22 23 22 22 22 21
8 9 10 10 11 13 13 13 14 14 14 15 16 17 17 18 19 19 19 20 19 19 19 18 18 17 16 16 15 15 15 16 17 17 17 19 21 23 23 23 23 22 22
9 9 10 11 12 12 13 13 14 14 15 16 17 17 17 18 19 19 20 20 19 18 18 18 17 16 15 14 14 13 14 15 17 17 17 19 21 22 24 24 23 23 23
9 9 10 11 11 12 13 13 14 15 16 16 17 17 17 18 19 19 20 19 19 18 18 17 16 15 14 13 12 12 13 14 16 17 17 19 20 22 23 24 24 24 24
8 9 10 11 11 12 13 14 14 15 15 16 17 17 17 18 19 20 20 19 19 18 18 17 16 14 13 12 11 10 11 13 15 17 17 19 20 22 22 23 24 24 24
8 9 10 11 12 12 13 14 14 15 15 16 16 17 17 18 19 19 19 19 19 18 17 16 15 14 13 12 10 9 8 10 12 15 17 19 20 22 22 22 23 24 24
8 8 9 11 12 12 13 13 14 15 15 16 16 17 17 18 18 19 19 18 18 18 17 16 15 14 13 11 9 7 7 8 11 14 16 18 19 21 22 22 23 25 25
8 9 9 11 11 12 13 13 14 14 15 16 16 17 17 18 18 18 19 18 18 18 17 16 14 13 12 10 8 6 5 7 9 12 15 17 18 19 21 22 23 24 25
8 8 9 10 11 12 12 13 14 14 15 16 16 16 17 17 18 18 19 18 18 17 16 15 14 13 12 10 8 6 4 6 8 11 13 16 17 18 19 21 21 22 23
8 8 9 10 11 11 12 13 13 14 15 16 16 16 16 17 17 18 18 18 17 17 16 16 14 13 12 10 8 6 4 4 6 9 12 14 16 17 19 20 21 22 22
7 8 9 10 11 11 12 12 13 14 15 15 16 17 17 17 17 17 18 18 17 17 16 16 15 13 12 10 8 6 4 3 4 7 10 13 15 16 18 20 20 22 23
Wind_Direction
290 293 296 301 304 307 309 311 313 315 319 321 322 321 318 316 315 312 306 299 294 288 283 280 272 267 264 259 258 258 258 258 257 253 252 249 245 241 234 232 234 230 234
293 297 300 302 305 306 308 309 311 315 319 321 322 322 319 316 316 315 312 306 299 293 288 282 277 268 265 261 259 257 256 256 254 251 250 247 242 240 235 233 229 226 226
296 301 304 305 307 308 312 314 313 317 319 319 320 319 318 316 315 314 310 306 301 298 294 288 282 273 268 263 261 258 256 256 253 249 246 246 242 238 235 234 230 224 221
297 302 305 307 307 309 313 315 315 315 317 317 317 317 316 315 314 313 312 308 304 302 297 291 285 281 273 266 262 260 258 256 253 248 243 241 239 235 234 231 226 223 221
300 302 304 305 307 309 312 313 314 315 316 317 317 317 317 316 315 313 311 309 307 305 301 296 290 284 279 272 266 261 258 256 253 248 243 240 237 233 232 228 223 221 219
303 303 306 307 307 309 313 313 313 316 317 316 317 316 317 317 316 313 312 310 308 306 303 299 295 288 281 277 272 265 260 256 253 247 242 239 236 233 230 228 221 217 216
306 306 309 308 310 313 314 314 315 317 318 317 317 316 318 318 317 315 314 313 310 307 304 300 299 293 285 278 274 267 261 256 253 247 241 237 236 230 228 226 219 215 214
308 308 311 311 314 317 316 315 317 319 320 320 318 317 318 319 318 317 315 314 311 307 303 300 297 293 287 281 275 267 260 257 255 247 242 238 235 230 228 224 218 215 212
307 306 310 312 315 318 319 319 321 322 321 321 320 319 319 319 317 316 314 313 311 307 303 300 297 293 288 283 275 269 264 259 253 247 242 237 234 230 226 222 218 214 211
305 305 306 309 315 320 323 322 322 322 321 321 322 321 320 319 317 316 315 313 311 306 303 300 298 294 289 284 277 271 266 261 253 248 242 237 233 230 225 221 218 214 212
309 307 306 310 315 321 323 323 324 324 323 323 324 324 322 320 319 318 316 313 311 307 303 300 298 294 289 285 279 273 268 262 255 247 241 237 234 229 225 220 217 214 212
313 310 305 313 320 324 324 325 326 325 324 324 324 323 322 321 321 319 317 315 312 309 304 300 298 294 289 285 280 274 268 261 254 245 240 235 232 227 225 221 217 214 213
314 314 311 315 323 327 328 328 327 326 326 325 324 324 323 322 321 320 319 316 313 310 305 301 299 295 290 285 280 274 266 259 251 244 238 234 230 227 223 220 216 214 213
317 321 321 323 327 329 328 327 327 326 326 326 327 325 324 323 322 321 319 317 315 311 306 301 300 297 292 286 280 271 263 257 249 243 238 233 229 226 221 219 216 214 212
322 325 329 329 330 330 329 328 327 326 326 327 328 326 326 326 324 322 321 319 317 314 309 304 300 299 295 289 282 271 261 253 246 241 235 230 226 222 219 217 213 213 213
327 328 330 334 332 332 332 331 329 328 328 328 327 327 328 328 327 326 324 323 320 317 314 309 304 301 295 289 283 271 259 251 243 239 234 228 223 219 217 215 212 214 214
331 332 334 336 335 334 335 335 333 332 331 331 330 330 330 330 331 330 328 326 323 321 319 315 310 305 298 290 282 271 258 248 239 236 232 226 222 218 216 215 213 214 213
331 334 335 337 337 336 337 337 337 337 336 335 335 334 333 334 334 333 332 330 327 325 324 321 317 311 305 295 285 273 259 247 237 233 229 223 221 218 217 215 213 214 214
332 333 335 340 339 339 340 340 339 340 340 339 338 337 337 337 337 336 336 334 332 330 329 327 324 319 312 303 291 277 260 248 236 228 224 220 219 216 216 214 214 214 214
334 333 336 339 339 339 340 341 341 340 341 341 341 340 339 340 341 340 339 338 336 335 334 332 329 325 318 309 299 285 264 246 233 227 225 219 216 215 215 215 214 215 214
335 334 337 339 341 342 341 342 343 343 343 343 343 342 341 341 342 342 341 341 341 340 339 337 334 329 325 319 309 290 266 245 235 227 223 217 216 215 214 216 215 215 214
336 337 341 344 344 344 344 344 345 347 347 345 345 345 344 343 343 344 344 344 345 344 343 341 338 335 331 327 319 301 270 251 234 223 218 216 216 216 216 216 215 217 216
341 344 345 346 346 345 345 346 348 348 348 347 346 345 345 346 347 348 348 348 348 348 348 347 345 342 338 333 328 311 278 247 232 221 217 216 216 215 214 216 216 215 215
346 348 347 347 348 347 347 349 350 349 350 350 348 346 347 348 349 351 352 351 351 351 352 351 349 351 347 340 333 319 284 247 226 218 217 217 217 217 215 216 215 215 215
345 348 349 350 349 349 348 349 351 351 351 351 350 350 350 351 352 353 353 354 354 354 355 354 351 351 353 351 343 331 302 259 228 217 215 216 218 217 215 214 216 217 217
349 351 352 352 352 350 349 350 351 351 352 353 353 353 353 353 354 354 354 356 357 357 357 358 357 354 355 356 352 345 323 277 237 219 216 217 219 219 216 216 216 218 219
Height
5878 5878 5878 5877 5877 5876 5876 5875 5874 5874 5873 5872 5871 5870 5869 5869 5868 5867 5867 5866 5866 5865 5865 5865 5865 5865 5866 5866 5866 5866 5867 5867 5867 5868 5868 5869 5869 5870 5870 5871 5871 5872 5873
5877 5877 5877 5876 5876 5875 5875 5874 5873 5873 5872 5871 5870 5869 5868 5867 5867 5866 5865 5865 5864 5864 5863 5863 5863 5863 5864 5864 5864 5864 5865 5865 5865 5866 5867 5867 5868 5869 5869 5870 5871 5871 5872
5876 5876 5876 5875 5875 5874 5874 5873 5872 5872 5871 5870 5869 5868 5867 5866 5866 5865 5864 5863 5862 5862 5862 5861 5861 5861 5861 5861 5862 5862 5862 5863 5863 5864 5865 5866 5866 5867 5868 5869 5870 5871 5871
5876 5875 5875 5874 5874 5873 5872 5872 5871 5871 5870 5869 5868 5867 5866 5865 5864 5863 5862 5862 5861 5860 5860 5859 5859 5859 5859 5859 5859 5860 5860 5860 5860 5862 5862 5863 5864 5865 5866 5867 5869 5870 5871
5875 5874 5874 5873 5873 5872 5871 5871 5870 5869 5869 5868 5867 5866 5865 5864 5863 5862 5861 5860 5859 5858 5858 5857 5856 5856 5856 5856 5856 5857 5857 5857 5858 5859 5860 5860 5862 5863 5865 5866 5867 5869 5870
5874 5873 5873 5872 5872 5871 5870 5870 5869 5868 5867 5866 5865 5864 5863 5862 5861 5860 5859 5858 5857 5856 5855 5855 5854 5853 5853 5853 5853 5854 5854 5854 5855 5856 5857 5859 5860 5862 5863 5865 5866 5868 5869
5873 5872 5872 5871 5870 5870 5869 5868 5867 5866 5866 5865 5864 5863 5862 5860 5859 5858 5857 5856 5855 5854 5853 5852 5851 5851 5850 5850 5850 5850 5851 5851 5852 5853 5855 5857 5858 5860 5861 5863 5865 5866 5868
5872 5871 5870 5870 5869 5869 5868 5867 5866 5865 5864 5863 5862 5861 5860 5859 5858 5856 5855 5854 5853 5852 5850 5849 5849 5848 5847 5847 5847 5847 5847 5848 5849 5851 5852 5854 5856 5858 5859 5861 5863 5865 5867
5871 5870 5870 5869 5868 5868 5867 5866 5865 5864 5863 5862 5861 5859 5858 5857 5856 5854 5853 5852 5850 5849 5848 5847 5846 5845 5844 5844 5843 5843 5844 5845 5846 5847 5849 5851 5853 5855 5857 5860 5862 5864 5866
5869 5869 5869 5868 5867 5866 5865 5864 5863 5862 5861 5860 5859 5858 5856 5855 5854 5852 5851 5849 5848 5846 5845 5843 5842 5842 5841 5840 5840 5840 5840 5841 5842 5844 5846 5849 5850 5853 5855 5858 5860 5862 5865
5868 5868 5867 5867 5866 5865 5864 5863 5862 5861 5860 5858 5857 5856 5854 5853 5851 5850 5848 5846 5845 5843 5841 5840 5839 5838 5837 5837 5837 5837 5837 5838 5838 5840 5843 5845 5847 5850 5852 5855 5858 5860 5863
5867 5866 5865 5865 5864 5864 5863 5862 5861 5860 5858 5857 5855 5854 5852 5851 5849 5847 5845 5843 5841 5840 5838 5836 5835 5834 5833 5833 5833 5833 5833 5834 5835 5836 5839 5841 5844 5847 5850 5853 5856 5859 5861
5865 5865 5864 5864 5863 5862 5861 5860 5859 5858 5856 5855 5853 5852 5850 5848 5846 5844 5842 5840 5838 5836 5834 5833 5831 5830 5829 5829 5828 5828 5829 5830 5831 5833 5835 5838 5840 5844 5847 5850 5853 5856 5860
5864 5863 5863 5862 5862 5861 5860 5859 5857 5856 5855 5853 5851 5850 5848 5846 5844 5842 5840 5837 5835 5833 5831 5829 5827 5826 5825 5824 5823 5824 5824 5825 5827 5829 5832 5834 5837 5840 5844 5847 5851 5854 5857
5863 5862 5862 5861 5860 5859 5858 5857 5856 5854 5853 5851 5849 5848 5846 5844 5841 5839 5837 5834 5832 5829 5827 5825 5823 5821 5820 5819 5819 5819 5820 5821 5823 5825 5828 5830 5833 5837 5841 5844 5848 5852 5855
5862 5861 5861 5860 5859 5858 5857 5855 5854 5852 5851 5849 5848 5846 5844 5841 5839 5836 5834 5831 5828 5825 5823 5821 5818 5817 5815 5814 5814 5814 5815 5817 5819 5821 5824 5827 5830 5834 5838 5841 5845 5849 5853
5860 5860 5859 5858 5857 5857 5855 5854 5852 5851 5849 5848 5846 5844 5841 5839 5836 5834 5831 5828 5825 5822 5819 5817 5814 5812 5811 5810 5810 5810 5811 5813 5815 5817 5820 5823 5827 5831 5835 5839 5843 5847 5851
5859 5859 5858 5857 5856 5855 5854 5852 5851 5849 5847 5846 5844 5841 5839 5837 5834 5831 5828 5825 5822 5819 5816 5813 5811 5809 5807 5806 5806 5806 5807 5809 5811 5814 5817 5820 5824 5828 5832 5836 5840 5844 5848
5858 5857 5857 5856 5855 5854 5852 5851 5849 5847 5846 5844 5842 5840 5837 5835 5832 5829 5826 5823 5820 5817 5814 5811 5808 5806 5804 5803 5802 5802 5803 5805 5807 5810 5813 5817 5821 5825 5829 5833 5837 5841 5845
5857 5856 5856 5855 5854 5852 5851 5850 5848 5846 5844 5842 5840 5838 5836 5833 5831 5828 5825 5821 5818 5815 5812 5809 5806 5803 5801 5800 5799 5799 5800 5802 5804 5807 5810 5814 5817 5822 5826 5830 5834 5838 5842
5856 5855 5855 5854 5853 5851 5850 5848 5847 5845 5843 5841 5839 5837 5834 5832 5829 5826 5823 5820 5817 5813 5810 5807 5804 5801 5799 5798 5797 5797 5797 5799 5801 5804 5807 5811 5815 5819 5823 5827 5831 5835 5840
5855 5854 5854 5852 5851 5850 5848 5847 5846 5844 5842 5840 5838 5836 5833 5831 5828 5825 5822 5819 5815 5812 5809 5806 5803 5800 5798 5796 5796 5795 5796 5798 5799 5802 5805 5808 5812 5816 5820 5824 5828 5832 5837
5854 5853 5852 5851 5850 5849 5847 5846 5844 5843 5841 5839 5837 5835 5832 5830 5827 5824 5821 5818 5814 5811 5808 5805 5802 5799 5797 5796 5794 5794 5795 5796 5797 5800 5803 5806 5809 5813 5817 5822 5825 5830 5834
5853 5852 5851 5850 5849 5848 5846 5845 5843 5842 5840 5838 5836 5834 5831 5829 5826 5823 5820 5817 5814 5811 5808 5805 5802 5799 5797 5795 5794 5794 5794 5795 5796 5799 5802 5804 5808 5811 5815 5819 5823 5827 5831
5853 5851 5850 5849 5848 5847 5845 5844 5843 5841 5839 5837 5835 5833 5830 5828 5825 5822 5820 5816 5813 5810 5807 5804 5802 5799 5797 5795 5794 5794 5794 5795 5796 5798 5800 5803 5806 5810 5813 5817 5821 5824 5828
5852 5851 5849 5848 5847 5846 5845 5843 5842 5840 5839 5837 5835 5832 5830 5827 5825 5822 5819 5816 5813 5810 5807 5805 5802 5800 5797 5796 5795 5794 5794 5795 5796 5797 5799 5802 5805 5808 5811 5814 5818 5822 5825